Simultaneous Nadir Overpasses (SNOs) Predictions

Prediction of SNOs between METOP-C and LANDSAT-8 Satellite Orbit:

Table of predicted SNOs for the next 14.0 days since TLE Epoch: 6/16/2022
Index Date (METOP-C) Time (METOP-C) Lat,Lon (METOP-C) SZA (METOP-C ) Date (LANDSAT-8) Time (LANDSAT-8) Lat,Lon (LANDSAT-8) SZA (LANDSAT-8 ) Distance(km) Time Diff (sec)
1 06/16/2022 18:57:09 -81.16, 116.13 120.01 06/16/2022 18:57:35 -81.16, 116.27 119.99 2.31 26
2 06/16/2022 19:47:46 81.20, -75.43 60.13 06/16/2022 19:47:00 81.19, -75.60 60.09 2.83 46
3 06/19/2022 14:31:30 -81.17,-177.12 120.05 06/19/2022 14:31:50 -81.17,-177.13 120.04 0.21 20
4 06/19/2022 15:22:08 81.19, -9.12 60.04 06/19/2022 15:21:15 81.20, -9.03 60.03 1.84 53
5 06/22/2022 10:05:53 -81.17,-110.81 120.08 06/22/2022 10:06:06 -81.17,-110.66 120.06 2.57 13
6 06/22/2022 10:56:30 81.20, 57.52 60.05 06/22/2022 10:55:31 81.20, 57.42 60.01 1.72 59
7 06/25/2022 05:40:15 -81.18, -44.17 120.02 06/25/2022 05:40:22 -81.17, -44.31 120.04 2.60 7
8 06/25/2022 06:30:53 81.19, 123.73 60.06 06/25/2022 06:29:47 81.19, 123.73 60.03 0.17 66
9 06/28/2022 00:24:07 80.99,-149.85 59.45 06/28/2022 00:25:21 80.88,-149.68 59.41 13.11 74
10 06/28/2022 01:14:36 -81.18, 22.41 119.91 06/28/2022 01:14:36 -81.18, 22.27 119.93 2.36 0



Historial Predications of SNOs between METOP-C and LANDSAT-8
